ECHOSTAR 23 (42070 NORAD) Tracking and Keplerian Element Data

This shows tracking and keplerian element data for the satellite.

Feedback or suggestion? Click here.




ElementValue
Catalog42070
NameECHOSTAR 23
Epoch Orbit618
Epoch Day321.96645105
Epoch Year2018
RAAN282.7897
Inclination0.0212
Eccentricity0.0002156
Argument of Perigee315.5124
Mean Anonmoly121.6769
Mean Motion1.00269181
Decay Rate-2.66E-06
L11 42070U 17014A 18321.96645105 -.00000266 00000-0 00000-0 0 9992
L22 42070 0.0212 282.7897 0002156 315.5124 121.6769 1.00269181 6183

Live tracking and technical data element details for ECHOSTAR 23 (NORAD 42070). ECHOSTAR 23 can be tracked NOW for your location showing map with azimuth and elevation plus other details from your city location.

Track the satellite on the map from your city or location and see movement details for azimuth, elevation, latitude, longitude, range, height, and movement on the map or in text.







IsCatalogInMostPopularTable: catalog: 42070, numindb: 163
Update: records affected: 1



GetName: 42070 ECHOSTAR 23

Hit Count: updated at: Mon, 19 Nov 2018 14:16:23 GMT